Regional Weather Roundup
Issued by NWS

Home | Current Version | Previous Version | Text Only | Print | Product List | Glossary On
Versions: 1 2 3 4 5 6 7 8 9 10 11 12 13 14 15 16 17 18 19 20 21 22 23 24 25 26 27 28 29 30 31 32 33 34 35 36 37 38 39 40 41 42 43 44 45 46 47 48 49 50
000
ASUS44 KOUN 301810
RWROK

WEATHER ROUNDUP FOR OKLAHOMA
NATIONAL WEATHER SERVICE NORMAN OK
100 PM CDT SAT JUL 30 2016

NOTE: "FAIR" INDICATES FEW OR NO CLOUDS BELOW 12,000 FEET WITH NO
      SIGNIFICANT WEATHER AND/OR OBSTRUCTIONS TO VISIBILITY.

OKZ001>007-009>012-014-015-017-301900-
NORTHWEST OKLAHOMA AND THE PANHANDLE

CITY           SKY/WX    TMP DP  RH WIND       PRES   REMARKS
GAGE           SUNNY     93  61  34 S13       29.99F HX  93
6HR MIN TEMP:  69; 6HR MAX TEMP:  93;

GUYMON         SUNNY     89  60  37 S24G30    29.98F
ENID/WOODRING  MOSUNNY   88  72  58 NE9       29.95F HX  94
$$

OKZ016-021>023-033>039-044-045-301900-
SOUTHWEST OKLAHOMA

CITY           SKY/WX    TMP DP  RH WIND       PRES   REMARKS
LAWTON/REGL    SUNNY     95  67  39 SW7G16    29.96F HX  99
6HR MIN TEMP:  73; 6HR MAX TEMP:  96;

LAWTON/FT SILL SUNNY     94  72  47 S8        29.95F HX 101
FREDERICK        N/A    N/A N/A N/A MISG      29.95F
CLINTON        PTSUNNY   83  69  62 S8        30.03F
HOBART         PTSUNNY   87  68  52 SW6       30.00F HX  90
ALTUS AFB      CLOUDY    90  67  46 S10       29.97F HX  92
$$

OKZ018>020-024>031-301900-
CENTRAL OKLAHOMA

CITY           SKY/WX    TMP DP  RH WIND       PRES   REMARKS
OKLAHOMA CITY  CLOUDY    85  72  65 E6        29.98S HX  91
6HR MIN TEMP:  73; 6HR MAX TEMP:  85;

OKC/WILEY POST CLOUDY    86  72  62 VRB3      29.99S HX  92
OKC/TINKER AFB CLOUDY    85  73  65 E12       29.98S HX  92
STILLWATER     CLOUDY    77  70  79 E7        29.98S
GUTHRIE        CLOUDY    79  72  79 E10       29.99S
$$

OKZ008-013-054>072-301900-
NORTHEAST OKLAHOMA

CITY           SKY/WX    TMP DP  RH WIND       PRES   REMARKS
TULSA          LGT RAIN  73  70  90 E3        29.97F
6HR MIN TEMP:  72; 6HR MAX TEMP:  83; 6HR PCP:  0.67;

TULSA/JONES    CLOUDY    75  73  93 NE5       29.99F
PONCA CITY     PTSUNNY   77  70  79 E6        29.96F
BARTLESVILLE   CLOUDY    73  70  90 SE6       29.99F THUNDER
MUSKOGEE       CLOUDY    83  72  69 N14       30.04R
$$

OKZ032-040>043-046>053-073>077-301900-
SOUTH CENTRAL/SOUTHEAST OKLAHOMA

CITY           SKY/WX    TMP DP  RH WIND       PRES   REMARKS
ARDMORE/DWNTWN SUNNY     93  63  36 W6        29.97S HX  94
MCALESTER      MOSUNNY   91  73  55 NW7       30.00F HX  99
$$





USA.gov is the U.S. government's official web portal to all federal, state and local government web resources and services.